GFSSE_925_spd_336.txt.gz
Wind_Speed
23 22 21 20 18 18 18 18 18 17 15 14 14 12 12 12 12 11 11 11 9 8 9 8 7 6 6 6 6 5 3 3 4 4 5 4 5 6 8 8 8 9 10
26 22 23 21 18 18 17 16 16 15 14 13 13 12 13 13 12 11 10 9 8 8 7 7 7 6 5 4 4 5 4 4 5 5 7 5 5 7 6 7 3 9 10
27 24 22 21 18 17 16 16 16 14 13 12 11 13 13 13 12 11 10 9 8 6 5 5 5 3 3 3 3 3 3 4 4 3 5 10 7 7 7 8 9 8 9
29 26 21 21 19 17 16 16 15 13 12 12 12 13 13 13 11 9 8 6 5 5 4 3 3 3 3 3 3 3 3 2 3 6 4 3 6 7 9 9 7 6 8
27 26 23 21 19 17 17 15 15 13 13 12 12 12 11 10 9 7 6 5 5 5 5 5 5 5 5 5 5 5 5 4 4 5 6 9 13 11 8 8 8 7 8
31 27 26 22 19 17 17 14 14 13 12 11 11 11 9 8 6 6 5 6 7 7 7 7 7 8 8 8 8 7 7 7 7 5 9 3 6 2 6 8 8 6 9
31 27 24 22 20 19 16 14 13 12 11 11 10 9 7 6 5 6 6 7 7 7 7 8 9 9 10 10 9 8 8 8 8 9 12 8 6 6 8 10 11 10 9
29 26 23 20 22 19 16 15 13 11 10 10 8 7 6 6 6 6 7 6 7 7 8 9 10 11 11 12 11 10 9 8 8 8 5 16 9 11 9 10 11 10 10
28 25 22 19 17 17 16 14 12 11 10 9 8 7 6 6 7 6 7 6 5 7 8 9 10 11 11 12 12 12 11 10 9 12 8 13 14 15 10 9 11 11 11
30 24 22 21 17 15 13 14 12 11 9 8 7 6 6 8 6 4 7 8 7 9 10 10 12 11 12 13 13 13 12 10 11 8 9 12 16 16 10 10 11 11 13
29 28 25 21 19 17 16 14 12 10 9 8 7 6 9 9 8 9 7 10 8 8 8 11 10 10 9 11 11 12 13 13 9 10 7 12 14 10 10 11 12 12 12
28 27 27 24 20 19 20 17 12 11 11 9 10 8 7 10 9 11 11 4 8 5 10 12 7 8 12 10 15 15 18 15 16 13 15 12 9 6 8 10 12 13 13
20 19 23 23 23 17 17 12 14 23 16 12 12 10 9 8 10 13 13 14 7 12 11 8 11 16 9 18 12 8 19 18 21 15 18 11 5 7 7 9 10 10 11
21 21 20 18 21 20 14 14 16 14 14 16 12 12 10 10 12 9 3 7 6 11 14 10 7 7 15 15 17 14 14 16 9 23 18 8 4 5 7 8 8 8 12
23 19 20 22 21 14 17 13 10 10 8 11 14 9 13 12 13 8 7 8 8 13 14 5 5 8 9 11 17 15 8 11 13 11 12 4 5 7 6 7 8 7 10
24 21 19 22 21 18 11 8 10 7 9 11 13 18 12 9 7 10 10 11 11 12 13 2 4 6 11 12 10 15 12 15 14 14 8 12 10 9 9 9 8 6 6
25 22 20 23 19 21 14 14 10 12 12 12 13 18 12 9 12 11 14 11 14 17 8 6 8 7 14 11 11 12 10 4 12 19 15 14 15 11 10 9 8 7 6
23 22 22 21 24 21 19 16 15 14 15 15 17 17 15 13 12 13 15 13 14 7 9 8 3 7 12 14 13 9 10 8 4 15 19 14 14 12 11 9 7 5 5
19 26 20 22 21 24 20 18 17 18 16 14 16 16 20 15 12 16 14 15 8 14 13 2 2 7 16 18 6 16 8 13 6 16 11 18 13 14 10 11 7 4 2
23 25 23 19 19 24 21 18 17 16 17 14 15 14 21 13 9 14 15 13 8 14 2 8 2 11 16 13 12 8 19 24 8 11 16 10 18 15 13 10 9 6 4
24 25 26 20 22 21 20 19 18 18 18 19 19 13 12 10 10 10 14 8 9 12 1 9 7 19 14 13 5 18 21 16 20 30 11 12 20 18 14 12 9 9 9
27 25 27 24 23 22 21 21 20 19 20 20 18 17 15 13 12 12 12 11 12 18 10 5 13 12 15 17 3 15 1 11 7 15 26 40 22 17 16 18 14 12 11
28 30 29 27 26 27 23 22 19 18 20 16 17 15 17 17 17 18 15 8 7 12 4 4 11 14 7 7 9 3 3 5 1 6 23 26 6 11 21 20 19 16 11
28 31 31 30 28 29 30 21 23 18 16 17 14 17 17 19 19 20 16 13 11 10 10 7 19 11 7 6 3 2 3 16 3 3 7 2 11 14 10 17 23 19 17
29 32 32 33 30 28 30 28 21 22 18 20 17 21 20 16 20 20 19 17 14 14 10 13 10 7 12 9 6 4 8 17 27 5 5 13 19 18 19 14 16 20 22
29 30 33 35 34 31 31 33 29 20 26 19 20 14 13 16 22 26 23 19 13 13 16 13 11 8 15 13 11 7 9 7 1 6 4 9 13 25 25 19 17 15 21

GFSSE_925_spd_339.txt.gz
Wind_Speed
25 24 22 20 17 17 17 17 18 18 16 14 13 14 14 15 15 15 14 12 11 10 8 6 6 6 6 6 5 5 5 5 5 6 7 7 8 9 12 12 8 10 11
32 26 24 20 20 18 17 17 16 16 15 14 12 13 13 13 13 12 12 11 9 8 7 6 6 5 5 6 5 7 7 6 6 7 7 7 6 8 8 8 8 8 11
34 29 26 21 21 18 17 16 15 15 14 13 13 14 13 13 12 12 11 11 10 8 6 5 4 4 4 5 4 6 6 8 7 6 4 7 8 5 6 8 11 8 11
34 32 28 22 20 18 18 17 15 15 13 13 14 14 14 12 12 11 10 9 7 6 5 4 3 2 2 3 3 4 5 6 8 4 6 3 8 5 6 8 9 9 11
33 31 29 25 21 19 18 16 15 14 13 13 13 12 12 11 9 8 7 6 5 5 4 3 3 3 3 3 4 4 5 5 7 2 5 11 7 7 8 9 8 10 12
31 29 28 25 22 20 18 17 15 14 13 13 12 11 10 8 7 6 6 5 5 5 6 6 6 6 6 7 7 8 7 8 7 6 3 7 4 9 10 10 10 11 13
33 29 26 23 23 22 19 17 15 13 13 12 11 10 9 7 6 6 6 6 7 7 7 8 8 8 8 8 9 9 9 9 9 10 13 15 20 13 12 11 14 13 13
37 31 26 24 23 19 18 17 15 14 13 12 11 10 9 7 6 7 6 6 6 7 8 8 9 9 9 10 10 10 10 10 11 12 13 23 22 19 13 16 18 15 14
32 34 29 26 22 18 16 15 14 13 13 12 11 9 8 7 7 6 6 7 8 9 9 9 10 11 11 10 10 12 12 12 13 13 11 14 17 20 16 17 16 15 15
34 32 31 27 23 21 18 16 14 14 13 12 11 10 9 8 7 7 7 8 9 9 11 10 11 10 10 12 12 11 14 14 12 14 16 13 22 21 17 16 17 17 16
32 32 29 29 25 22 19 17 15 14 13 12 11 11 11 11 10 9 8 9 9 11 12 9 9 8 9 9 11 14 14 17 15 17 14 17 16 21 17 18 18 17 16
33 33 31 27 25 22 19 19 17 15 16 14 12 11 10 11 11 10 10 9 8 8 7 10 12 12 10 14 17 17 19 17 18 16 16 14 13 19 18 20 19 18 17
39 36 33 28 25 25 26 21 18 19 18 18 13 11 10 11 12 12 14 14 12 7 13 8 11 12 10 15 14 18 20 18 18 15 18 17 17 17 16 17 17 16 16
32 35 39 32 28 29 30 28 20 21 22 21 18 15 13 12 12 13 7 8 11 9 9 12 6 8 13 11 18 15 17 12 15 18 20 18 18 14 13 13 13 14 14
25 33 37 37 32 30 26 25 19 24 27 23 19 15 14 12 11 9 8 8 10 10 11 13 12 9 7 13 17 21 19 15 11 16 20 19 15 11 10 10 11 10 12
31 25 30 37 32 25 24 26 19 12 14 17 18 15 11 12 10 9 9 11 13 13 11 13 11 8 10 11 17 24 13 5 7 18 15 16 12 8 8 8 9 9 9
36 30 26 33 32 28 23 16 19 16 10 12 16 14 17 16 14 10 9 13 12 12 13 13 11 8 8 7 12 13 19 8 5 22 20 17 14 10 8 8 9 9 8
38 34 31 34 31 29 24 21 18 19 16 13 14 15 22 18 13 11 11 12 13 14 14 10 10 13 15 13 8 16 16 9 7 13 21 18 15 13 11 10 10 9 8
38 35 34 33 31 28 27 25 19 19 21 18 18 21 23 20 12 14 9 13 14 14 9 6 7 12 11 11 5 10 10 14 6 4 2 12 17 14 12 11 10 9 8
38 36 34 32 33 29 24 24 20 21 21 19 19 17 17 23 14 13 12 11 15 12 8 9 6 11 8 5 1 9 10 4 8 4 6 6 15 20 15 14 13 11 9
32 37 34 30 29 32 30 27 23 24 22 20 18 16 12 21 18 12 9 13 11 13 9 9 7 6 9 8 12 12 5 2 7 8 21 22 12 18 21 19 16 14 13
36 39 35 29 28 35 32 29 25 23 22 20 20 20 17 20 16 14 10 10 10 14 12 7 7 6 7 2 4 6 2 3 8 19 15 22 24 16 17 26 18 14 16
37 41 38 34 28 30 29 26 20 24 24 25 27 25 23 20 16 15 15 13 15 10 10 12 11 7 5 3 5 6 2 4 2 6 21 15 23 25 23 27 21 16 16
36 42 41 38 33 30 30 26 25 25 23 23 21 21 15 23 20 17 17 16 18 12 12 16 15 10 5 9 7 6 8 8 3 2 10 18 17 25 15 27 27 21 23
37 39 43 41 38 35 32 29 30 30 24 23 20 18 16 21 21 21 17 22 18 15 13 15 12 9 11 10 10 5 8 9 9 4 3 4 14 21 19 22 29 28 24
35 37 40 41 41 38 35 36 31 30 30 23 22 22 21 23 19 24 21 19 21 18 13 14 14 13 14 14 15 12 7 4 2 6 2 3 4 10 17 4 8 3 2

GFSSE_925_spd_342.txt.gz
Wind_Speed
28 24 21 19 16 14 15 16 16 17 16 15 16 16 17 18 18 16 15 14 12 11 9 8 7 7 6 5 4 5 6 6 6 7 7 9 9 12 14 12 11 12 13
35 28 24 19 18 16 16 16 16 15 14 13 13 14 15 15 15 14 13 11 11 10 8 8 7 7 6 5 5 5 6 7 7 8 9 9 9 12 11 8 11 12 12
36 31 26 23 20 18 17 16 15 14 13 12 13 13 13 12 12 12 11 10 9 8 8 7 7 6 5 5 6 6 7 6 7 7 7 9 11 10 9 10 11 12 12
37 33 28 25 23 20 17 15 14 13 12 13 13 13 13 12 11 11 10 9 8 7 7 6 5 5 4 3 3 5 6 5 5 6 5 5 7 8 9 9 11 11 14
35 33 29 27 23 20 18 16 14 13 13 14 13 12 11 11 10 9 8 7 7 6 6 5 5 4 4 4 4 4 5 5 6 6 6 13 9 9 8 9 9 11 12
35 33 27 27 24 21 19 17 16 15 14 14 13 12 11 9 8 8 7 7 7 7 7 6 6 6 6 6 6 7 7 6 7 8 4 7 8 8 8 9 9 12 13
35 32 27 25 23 22 20 18 17 16 15 14 13 11 10 8 8 8 8 7 7 7 8 7 7 7 7 7 7 8 8 8 9 11 9 7 8 6 8 10 12 13 14
36 32 28 25 23 20 19 17 16 15 14 14 12 11 9 9 8 8 8 8 8 8 8 8 8 8 8 9 9 9 9 8 10 12 11 9 8 10 10 12 15 15 14
35 34 30 26 24 20 19 18 16 15 14 13 12 10 9 9 9 8 8 8 8 8 8 9 9 9 9 8 9 9 10 9 11 12 14 13 11 13 14 13 18 17 16
36 34 33 30 26 24 21 19 17 15 14 14 12 11 10 10 9 9 9 9 8 8 9 10 11 10 9 10 11 10 10 10 11 13 17 14 16 17 16 15 18 17 17
27 32 32 31 29 26 23 20 17 16 15 14 13 12 12 12 11 11 10 10 11 10 10 11 11 11 10 11 11 11 9 12 12 14 16 19 20 19 22 19 18 19 19
27 33 34 32 30 26 24 21 19 17 17 16 14 14 14 13 12 13 13 11 9 9 8 11 9 12 11 13 14 12 11 12 13 15 17 18 17 19 23 22 20 20 19
36 34 35 33 30 27 24 23 21 20 18 16 15 14 14 14 13 14 16 14 15 11 12 12 10 12 13 13 16 13 15 17 14 15 17 18 16 18 22 22 21 20 19
29 38 36 34 32 29 25 23 23 22 20 19 18 18 16 14 13 14 15 13 15 15 13 10 11 10 13 14 14 13 12 12 14 17 18 18 18 18 20 21 19 19 18
32 34 35 35 33 31 29 24 24 23 22 20 20 19 19 16 17 15 14 14 12 12 14 11 10 13 11 8 11 13 13 13 14 15 21 21 18 17 18 17 16 17 17
38 37 36 36 34 33 31 26 27 27 21 24 22 21 17 18 17 12 12 13 15 12 13 10 16 12 6 5 7 7 12 12 13 13 11 12 16 17 14 14 14 14 14
38 41 40 39 37 36 34 29 28 24 14 18 25 23 18 17 17 14 14 14 13 10 11 10 12 10 3 5 3 14 10 12 12 11 14 13 15 18 15 15 13 12 11
35 39 44 40 40 38 36 30 27 22 17 11 15 18 18 21 20 18 17 14 12 10 10 12 8 7 7 8 7 15 12 13 12 15 20 18 15 19 17 16 13 11 11
42 37 40 41 42 39 34 31 26 25 23 19 15 15 22 20 23 21 17 12 11 12 12 9 8 4 6 15 9 14 11 12 10 8 13 16 16 17 18 18 15 10 10
41 43 39 42 43 42 34 31 28 25 24 22 23 18 15 18 26 21 16 15 14 14 13 9 6 7 3 9 9 9 13 5 6 10 14 18 19 18 21 20 17 14 12
38 42 40 41 42 41 35 29 26 25 23 25 25 20 19 17 26 22 15 14 16 10 9 7 7 10 9 13 7 4 5 5 9 14 11 17 15 15 18 20 20 17 16
37 40 42 43 42 41 37 32 27 25 24 24 22 20 19 14 19 23 18 16 14 11 10 13 10 6 5 11 4 3 1 5 14 16 17 22 22 15 17 21 21 21 19
35 40 43 44 42 41 38 32 24 21 22 22 25 22 21 16 24 24 22 18 14 12 13 10 11 9 6 9 12 5 2 4 1 11 18 19 16 19 20 18 16 21 22
38 42 44 44 41 39 37 34 32 26 25 26 24 21 20 24 28 25 23 20 17 14 12 12 10 8 10 6 9 10 8 4 4 2 7 16 19 15 17 20 21 22 22
34 40 43 45 42 39 37 36 34 27 26 27 23 20 21 21 29 27 26 22 19 15 14 15 15 13 13 10 8 7 7 4 3 4 2 2 8 10 16 16 16 17 21
28 32 37 41 42 40 39 38 36 32 26 25 24 23 21 16 24 32 28 24 21 18 17 19 16 15 13 12 11 10 10 4 2 3 1 1 1 1 6 3 6 13 20

GFSSE_925_spd_345.txt.gz
Wind_Speed
21 23 20 18 18 18 17 17 17 17 19 20 21 21 20 19 19 18 16 15 13 11 9 7 5 4 4 4 5 6 5 4 4 5 6 6 5 7 10 10 10 12 13
34 27 23 19 19 18 17 17 16 16 16 17 17 18 17 16 15 15 14 12 11 9 8 6 5 4 4 3 3 3 5 5 5 5 5 6 7 9 8 8 9 10 13
35 29 25 21 20 20 18 17 16 15 14 14 15 15 15 14 12 12 11 10 9 8 7 6 5 4 4 3 3 3 4 6 6 6 7 7 8 8 6 7 9 9 11
34 30 27 23 21 21 20 17 15 14 13 13 13 14 13 12 10 9 9 8 7 6 6 5 5 4 4 3 3 3 3 3 3 5 5 6 7 6 5 10 9 11 10
33 30 27 24 21 20 19 16 15 13 13 13 13 13 12 11 10 8 8 7 6 5 5 4 4 4 4 4 4 4 4 4 4 4 4 6 5 7 6 7 8 9 12
33 30 25 23 21 19 19 17 15 14 14 13 13 12 11 10 9 8 7 6 6 6 6 6 6 6 6 5 5 6 6 5 4 5 4 2 11 8 9 8 8 9 10
32 29 25 22 18 17 16 16 15 14 14 13 12 11 11 9 8 7 7 7 7 7 7 7 7 7 7 7 7 7 7 7 7 7 6 6 6 6 8 10 10 11 11
33 29 25 23 20 18 16 15 14 13 13 13 12 11 10 9 8 7 7 7 8 8 8 8 7 8 8 8 8 8 8 9 9 10 9 9 9 9 10 10 12 12 12
32 30 27 24 21 18 17 16 15 14 14 13 12 11 10 9 8 8 8 8 8 8 9 8 8 8 9 9 9 9 8 9 10 11 11 11 10 10 11 13 13 14 13
33 30 29 27 24 22 20 17 16 15 14 13 12 11 10 9 8 8 8 9 9 9 10 10 9 9 10 10 10 9 10 10 11 11 13 13 12 11 11 11 12 12 13
24 29 29 28 26 24 21 19 17 16 15 13 12 11 10 11 10 10 10 10 10 11 10 11 10 9 10 10 9 8 10 11 12 12 15 15 14 14 15 14 13 12 14
24 31 31 30 29 26 23 21 19 18 17 15 14 13 12 12 11 11 12 13 11 10 9 9 10 10 11 12 10 10 10 11 12 13 14 14 15 16 16 15 18 16 17
32 29 34 33 30 27 26 23 21 19 17 17 15 14 13 13 13 13 15 14 13 13 15 12 12 11 12 13 12 12 13 15 15 15 15 15 14 15 15 16 18 19 18
27 36 34 34 32 30 27 24 22 21 20 17 15 14 15 14 14 14 13 12 13 14 13 12 11 10 11 13 12 12 13 13 12 13 16 15 16 14 16 17 17 19 19
28 32 36 36 34 32 29 26 23 21 20 18 17 16 16 16 16 15 13 14 13 9 10 9 11 10 13 12 13 16 14 13 14 15 15 16 16 17 15 16 17 17 18
33 35 36 37 37 34 32 29 25 22 19 20 19 19 18 19 20 19 15 14 14 11 10 12 10 9 10 10 11 10 11 12 14 16 16 15 12 10 10 11 15 13 12
37 39 37 38 37 36 34 33 30 25 22 21 21 23 21 21 19 19 18 16 14 10 10 8 9 8 10 10 13 12 8 8 10 12 12 10 10 9 10 9 9 12 11
36 37 40 38 38 37 37 34 32 28 24 20 17 18 21 23 22 19 19 16 17 11 10 7 7 8 10 11 14 15 16 14 12 13 12 13 10 9 10 8 7 9 12
41 40 40 39 39 40 38 36 33 28 24 22 16 17 17 20 22 23 24 19 16 12 10 11 8 8 11 12 12 8 7 10 11 12 13 19 19 13 11 9 8 9 11
39 41 43 43 41 42 39 36 33 29 24 23 20 16 14 14 16 20 22 20 17 14 12 11 8 7 7 11 10 12 12 9 9 11 10 11 12 11 11 12 12 12 13
34 39 41 40 40 39 38 36 34 33 30 27 23 22 19 17 16 20 21 22 19 15 12 10 9 6 9 9 7 6 11 14 15 14 12 12 12 11 12 13 15 15 15
35 38 41 43 42 43 38 38 33 38 32 29 27 26 23 19 19 22 22 20 19 15 13 11 10 5 7 11 5 3 3 5 16 20 16 14 18 15 10 11 14 16 17
33 39 41 44 44 43 40 36 32 26 25 20 22 22 22 20 20 19 23 22 19 18 13 12 10 10 11 11 17 5 1 3 4 5 15 19 16 12 14 14 15 13 15
38 36 39 41 43 42 43 39 35 30 25 25 21 24 21 21 19 20 23 24 20 19 15 13 12 13 14 12 10 17 12 5 2 4 5 10 12 13 12 16 18 16 17
29 33 37 39 40 41 43 41 39 34 29 23 21 22 19 18 21 22 24 29 26 21 19 15 14 15 15 15 14 7 9 6 5 3 3 4 0 8 16 14 17 22 21
27 30 34 38 40 41 42 42 40 38 32 27 23 24 22 20 20 20 24 30 29 24 21 18 17 18 18 17 17 14 11 6 6 5 3 3 3 4 2 8 13 16 14